Location: Niverville
(49.6028°N, 97.0419°W)
Time: 00:21:22
(UTC-05:00)

ISS - All Passes

Search period start: 31 July 2014 00:00
Search period end: 10 August 2014 00:00
Orbit: 411 x 419 km, 51.6° (Epoch: 31 July)

Date Brightness Start Highest point End Pass type
(mag) Time Alt. Az. Time Alt. Az. Time Alt. Az.
31 Jul - 01:03:47 10° WSW 01:07:07 72° SSE 01:10:29 10° ENE visible
31 Jul - 02:40:37 10° W 02:43:56 59° N 02:47:17 10° ENE visible
31 Jul - 04:17:27 10° WNW 04:20:50 88° NNE 04:24:12 10° ESE visible
31 Jul - 05:54:27 10° W 05:57:17 25° SW 06:00:06 10° SSE daylight
31 Jul - 22:41:11 10° SSE 22:42:14 11° SE 22:43:17 10° ESE night (unlit)
01 Aug - 00:15:04 10° SW 00:18:19 51° SSE 00:21:36 10° ENE visible
01 Aug - 01:51:42 10° W 01:55:03 63° N 01:58:23 10° ENE visible
01 Aug - 03:28:36 10° WNW 03:31:58 72° NNE 03:35:20 10° E visible
01 Aug - 05:05:26 10° W 05:08:34 37° SSW 05:11:42 10° SE visible
01 Aug - 23:26:29 10° SW 23:29:34 35° SSE 23:32:40 10° E night (unlit)
02 Aug - 01:02:48 10° W 01:06:09 73° NNW 01:09:31 10° ENE visible
02 Aug - 02:39:44 10° WNW 02:43:04 62° N 02:46:25 10° E visible
02 Aug - 04:16:31 10° WNW 04:19:48 54° SSW 04:23:06 10° SE visible
02 Aug - 05:54:35 10° WSW 05:55:56 12° SW 05:57:17 10° SSW daylight
02 Aug - 22:38:07 10° SSW 22:40:51 24° SE 22:43:36 10° E visible
03 Aug - 00:13:55 10° WSW 00:17:16 90° S 00:20:39 10° ENE visible
03 Aug - 01:50:50 10° W 01:54:09 58° N 01:57:29 10° E visible
03 Aug - 03:27:38 10° WNW 03:31:00 75° SSW 03:34:21 10° ESE visible
03 Aug - 05:04:54 10° W 05:07:18 18° SW 05:09:42 10° S visible
03 Aug - 21:50:04 10° S 21:52:11 16° SE 21:54:18 10° E visible
03 Aug - 23:25:06 10° WSW 23:28:25 68° SSE 23:31:46 10° ENE visible
04 Aug - 01:01:54 10° W 01:05:14 59° N 01:08:34 10° ENE visible
04 Aug - 02:38:45 10° WNW 02:42:07 84° NNE 02:45:30 10° ESE visible
04 Aug - 04:15:42 10° W 04:18:36 27° SW 04:21:30 10° SSE visible
04 Aug - 21:03:21 10° SE 21:03:33 10° SE 21:03:45 10° SE daylight
04 Aug - 22:36:23 10° SW 22:39:36 47° SSE 22:42:51 10° ENE visible
05 Aug - 00:12:58 10° W 00:16:18 65° N 00:19:39 10° ENE visible
05 Aug - 01:49:52 10° WNW 01:53:13 69° NNE 01:56:35 10° E visible
05 Aug - 03:26:41 10° W 03:29:51 40° SSW 03:33:01 10° SE night (unlit)
05 Aug - 21:47:49 10° SSW 21:50:50 32° SSE 21:53:52 10° E visible
05 Aug - 23:24:02 10° W 23:27:23 76° NNW 23:30:44 10° ENE visible
06 Aug - 01:00:58 10° WNW 01:04:17 61° N 01:07:37 10° E visible
06 Aug - 02:37:44 10° WNW 02:41:03 58° SSW 02:44:21 10° SE night (unlit)
06 Aug - 04:15:33 10° WSW 04:17:13 13° SW 04:18:52 10° SSW night (unlit)
06 Aug - 20:59:28 10° SSW 21:02:05 22° SE 21:04:44 10° E daylight
06 Aug - 22:35:08 10° WSW 22:38:29 86° SSE 22:41:50 10° ENE visible
07 Aug - 00:12:01 10° W 00:15:20 58° N 00:18:40 10° E visible
07 Aug - 01:48:49 10° WNW 01:52:11 80° SSW 01:55:33 10° ESE visible
07 Aug - 03:26:00 10° W 03:28:32 20° SW 03:31:03 10° S night (unlit)
07 Aug - 20:11:30 10° S 20:13:24 15° SE 20:15:18 10° ESE daylight
07 Aug - 21:46:18 10° WSW 21:49:36 63° SSE 21:52:55 10° ENE visible
07 Aug - 23:23:04 10° W 23:26:23 60° N 23:29:42 10° ENE visible
08 Aug - 00:59:55 10° WNW 01:03:17 80° NNE 01:06:39 10° ESE visible
08 Aug - 02:36:49 10° W 02:39:48 29° SW 02:42:45 10° SSE night (unlit)
08 Aug - 20:57:35 10° SW 21:00:45 44° SSE 21:03:58 10° ENE daylight
08 Aug - 22:34:05 10° W 22:37:25 66° N 22:40:46 10° ENE visible
09 Aug - 00:11:00 10° WNW 00:14:20 67° N 00:17:41 10° E visible
09 Aug - 01:47:47 10° WNW 01:51:00 43° SSW 01:54:12 10° SE visible
09 Aug - 20:09:01 10° SSW 20:11:57 30° SE 20:14:55 10° E daylight
09 Aug - 21:45:08 10° WSW 21:48:28 79° NNW 21:51:50 10° ENE visible
09 Aug - 23:22:03 10° WNW 23:25:22 60° N 23:28:42 10° E visible
